FW3284 Weather Reports


time (UTC)temp
C
wind
direction
speed
KPH
gust
KPH
rain 1hr
cm
rain 24hr
cm
rain mn
cm
humidity
%
barometer
mb
20260505071507 17 145 0.0 6.4 0.00 0.00 0.00 72 1003.9
20260505070031 17 214 1.6 12.9 0.00 0.00 0.00 72 1003.7
20260505064512 17 170 0.0 9.7 0.00 0.00 0.00 72 1003.7
20260505063049 17 203 1.6 14.5 0.00 0.00 0.00 73 1004.0
20260505061531 17 161 0.0 11.3 0.00 0.00 0.00 72 1004.0
20260505060057 17 140 0.0 6.4 0.00 0.00 0.00 72 1004.0
20260505054548 17 183 1.6 11.3 0.00 0.00 0.00 71 1004.1
20260505053025 18 160 0.0 4.8 0.00 0.00 0.00 70 1004.2
20260505051513 18 131 1.6 9.7 0.00 0.00 0.00 70 1004.3
20260505041509 19 228 1.6 11.3 0.00 0.00 0.00 66 1004.2
20260505040050 19 168 1.6 16.1 0.00 0.00 0.00 66 1004.4
20260505034533 19 285 0.0 8.0 0.00 0.00 0.00 65 1004.8
20260505033014 20 166 3.2 12.9 0.00 0.00 0.00 64 1004.8
20260505031552 20 169 1.6 8.0 0.00 0.00 0.00 64 1004.9
20260505030044 20 193 1.6 17.7 0.00 0.00 0.00 63 1004.9
20260505024517 20 189 0.0 16.1 0.00 0.00 0.00 62 1004.9
20260505023058 20 319 0.0 8.0 0.00 0.00 0.00 62 1004.6
20260505021541 20 169 0.0 12.9 0.00 0.00 0.00 61 1004.3
20260505020023 21 162 0.0 6.4 0.00 0.00 0.00 59 1004.2
20260505014518 21 256 0.0 6.4 0.00 0.00 0.00 57 1003.9
20260505013055 22 195 0.0 11.3 0.00 0.00 0.00 56 1003.7
20260505011543 22 181 0.0 1.6 0.00 0.00 0.00 55 1003.5
20260505010025 22 165 0.0 6.4 0.00 0.00 0.00 53 1003.4
20260505004520 23 217 1.6 16.1 0.00 0.00 0.00 50 1003.1
20260505003050 23 231 4.8 12.9 0.00 0.00 0.00 50 1003.0
20260505001536 23 231 1.6 8.0 0.00 0.00 0.00 51 1002.9
20260505000015 23 161 1.6 14.5 0.00 0.00 0.00 50 1003.1
20260504234553 24 215 4.8 22.5 0.00 0.00 0.00 48 1003.1
20260504233033 25 262 3.2 22.5 0.00 0.00 0.00 48 1003.2
20260504231515 25 184 4.8 20.9 0.00 0.00 0.00 47 1003.3
20260504230056 25 221 8.0 22.5 0.00 0.00 0.00 47 1003.2
20260504224537 26 240 4.8 17.7 0.00 0.00 0.00 47 1003.2
20260504223017 25 238 8.0 25.7 0.00 0.00 0.00 45 1003.3
20260504221641 26 212 6.4 25.7 0.00 0.00 0.00 45 1003.4
20260504220040 26 238 4.8 17.7 0.00 0.00 0.00 45 1003.3
20260504214525 26 210 9.7 22.5 0.00 0.00 0.00 48 1003.4
20260504213027 26 203 12.9 27.4 0.00 0.00 0.00 45 1003.5
20260504211553 26 172 6.4 27.4 0.00 0.00 0.00 43 1003.7
20260504210032 26 226 11.3 19.3 0.00 0.00 0.00 44 1003.7
20260504204508 26 240 9.7 24.1 0.00 0.00 0.00 44 1004.0
20260504203047 26 186 9.7 19.3 0.00 0.00 0.00 45 1004.2
20260504201528 26 169 6.4 22.5 0.00 0.00 0.00 46 1004.2
20260504200007 25 207 1.6 25.7 0.00 0.00 0.00 46 1004.5
20260504194535 26 210 11.3 27.4 0.00 0.00 0.00 44 1004.7
20260504193021 26 221 12.9 25.7 0.00 0.00 0.00 46 1004.8
20260504191621 25 245 6.4 27.4 0.00 0.00 0.00 44 1004.8
20260504190040 25 215 12.9 25.7 0.00 0.00 0.00 46 1005.0
20260504184537 25 235 14.5 29.0 0.00 0.00 0.00 45 1005.2
20260504183057 25 233 4.8 24.1 0.00 0.00 0.00 46 1005.2
20260504181541 25 162 9.7 24.1 0.00 0.00 0.00 46 1005.1
20260504180025 25 237 9.7 25.7 0.00 0.00 0.00 48 1005.3
20260504174553 25 188 11.3 27.4 0.00 0.00 0.00 47 1005.2
20260504173035 25 233 6.4 25.7 0.00 0.00 0.00 50 1005.4
20260504171517 24 214 4.8 24.1 0.00 0.00 0.00 49 1005.5
20260504081525 17 189 8.0 14.5 0.00 0.00 0.00 57 1008.6